Location: Bronnegerveen
(52.9548°N, 6.8388°E)
Time: 01:21:32
(UTC+00:00)

SJ 16-02 - Pass Details

Date: 15 June 2025
Orbit: 587 x 596 km, 75.0° (Epoch: 07 July)

Event Time Altitude Azimuth Distance (km) Brightness Sun altitude
Exits shadow 00:15:34 20° 207° (SSW) 1,406 2.6 -13.2°
Maximum altitude 00:18:33 83° 293° (WNW) 609 1.3 -13.1°
Drops below altitude 10° 00:22:54 10° 23° (NNE) 1,945 5.3 -13.0°
Sets 00:25:08 0° 24° (NNE) 2,851 6.6 -12.9°
